Sanko Independence — A8QJ9 — position and weather

sailwx.info

Track history (hours):
 
Tides and Currents Weather Stations Pressure Air Temp Water Temp Dewpoint Dewpoint Depression Visibility Wind Speed Wind Dir Waves Ship Positions

Sanko Independence

Last reported at 2014-Jul-29 22:27 UTC. Time now 2014-Jul-30 05:09 UTC.
Position N 33°10' W 008°40'.

Length 174 m; draft 10.5 m.

Type: Ship (hazmat cat C). MMSI: 636013946.

Date/timePositionNaut miles runAvg speedWind from/ knotsBaromVisibWave heightAir tempDewpointWater temp
2014-Jul-29 22:27N 33°10' W 008°40'  
2014-Jul-26 13:08N 35°32' W 009°18'1414.5
2014-Jul-26 12:09N 35°46' W 009°22'3914.6
2014-Jul-26 09:29N 36°24' W 009°33'1414.4
2014-Jul-26 08:33N 36°37' W 009°37'1614.3
2014-Jul-26 07:26N 36°53' W 009°40'1314.4
2014-Jul-26 06:32N 37°05' W 009°44'1414.7
2014-Jul-26 05:33N 37°19' W 009°49'1614.8
2014-Jul-26 04:27N 37°35' W 009°53'1314.5
2014-Jul-26 03:33N 37°48' W 009°57'1414.6
2014-Jul-26 02:33N 38°02' W 010°00'2114.5
2014-Jul-26 01:05N 38°23' W 010°07'914.5
2014-Jul-26 00:30N 38°31' W 010°09'1614.7
2014-Jul-25 23:26N 38°47' W 010°12'1314.5
2014-Jul-25 22:33N 38°60' W 010°12'1514.6
2014-Jul-25 21:31N 39°15' W 010°12'1414.7
2014-Jul-25 20:33N 39°29' W 010°12'68613.7
2014-Jul-23 18:33N 49°55' W 003°37'9511.9
2014-Jul-23 10:31N 50°26' W 001°16'1715.9
2014-Jul-23 09:27N 50°27' W 000°50'1314.6
2014-Jul-23 08:33N 50°27' W 000°29'1413.9
2014-Jul-23 07:32N 50°30' W 000°07'1313.3
2014-Jul-23 06:32N 50°33' E 000°13'1313.2
2014-Jul-23 05:33N 50°37' E 000°33'1414.1
2014-Jul-23 04:33N 50°44' E 000°52'1815.3
2014-Jul-23 03:24N 50°54' E 001°15'1316.1
2014-Jul-23 02:33N 51°03' E 001°31'1515.2
2014-Jul-23 01:33N 51°15' E 001°47'1413.8
2014-Jul-23 00:33N 51°27' E 001°58'1313.2
2014-Jul-22 23:33N 51°37' E 002°10'1313.0
2014-Jul-22 22:31N 51°48' E 002°24'1212.7
2014-Jul-22 21:33N 51°58' E 002°34'1413.9
2014-Jul-22 20:33N 52°12' E 002°40'1514.9
2014-Jul-22 19:34N 52°25' E 002°50'1515.4
2014-Jul-22 18:34N 52°39' E 003°01'1615.6
2014-Jul-22 17:34N 52°53' E 003°13'1515.3
2014-Jul-22 16:34N 53°07' E 003°22'1514.7
2014-Jul-22 15:34N 53°21' E 003°30'1414.1
2014-Jul-22 14:33N 53°34' E 003°37'1313.2
2014-Jul-22 13:33N 53°46' E 003°48'1414.0
2014-Jul-22 12:33N 53°54' E 004°07'1413.6
2014-Jul-22 11:33N 54°06' E 004°20'1414.3
2014-Jul-22 10:33N 54°18' E 004°33'1414.4
2014-Jul-22 09:33N 54°30' E 004°47'25413.9
2014-Jul-21 15:16N 57°45' E 009°38'1014.1
2014-Jul-21 14:33N 57°50' E 009°55'1414.1
2014-Jul-21 13:33N 57°51' E 010°21'1413.6
2014-Jul-21 12:34N 57°48' E 010°46'1211.9
2014-Jul-21 11:33N 57°40' E 011°02'1413.9
2014-Jul-21 10:33N 57°30' E 011°21'1414.0
2014-Jul-21 09:33N 57°18' E 011°34'1514.5
2014-Jul-21 08:33N 57°04' E 011°42'1414.5
2014-Jul-21 07:33N 56°50' E 011°51'1312.9
2014-Jul-21 06:32N 56°37' E 011°46'1413.5
2014-Jul-21 05:32N 56°26' E 011°33'1413.5
2014-Jul-21 04:31N 56°14' E 011°21'1313.6
2014-Jul-21 03:34N 56°03' E 011°07'1414.3
2014-Jul-21 02:34N 55°52' E 010°52'1614.5
2014-Jul-21 01:29N 55°36' E 010°49'1415.0
2014-Jul-21 00:33N 55°24' E 011°01'1413.8
2014-Jul-20 23:33N 55°10' E 011°04'1413.8
2014-Jul-20 22:34N 54°57' E 010°55'1514.6
2014-Jul-20 21:34N 54°43' E 010°50'1413.5
2014-Jul-20 20:34N 54°36' E 011°10'1515.3
2014-Jul-20 19:34N 54°29' E 011°33'1514.8
2014-Jul-20 18:34N 54°26' E 011°58'1312.6
2014-Jul-20 17:34N 54°34' E 012°15'1414.2
2014-Jul-20 16:34N 54°43' E 012°34'1414.1
2014-Jul-20 15:34N 54°50' E 012°56'1414.2
2014-Jul-20 14:34N 54°54' E 013°19'1414.3
2014-Jul-20 13:34N 54°60' E 013°42'1414.2
2014-Jul-20 12:34N 55°04' E 014°05'1413.9
2014-Jul-20 11:33N 55°12' E 014°26'1413.8
2014-Jul-20 10:33N 55°20' E 014°45'1111.0
2014-Jul-20 09:33N 55°26' E 015°02'1414.3
2014-Jul-20 08:33N 55°35' E 015°22'1414.4
2014-Jul-20 07:33N 55°43' E 015°42'1414.5
2014-Jul-20 06:33N 55°52' E 016°03'1414.4
2014-Jul-20 05:33N 56°00' E 016°24'1414.4
2014-Jul-20 04:33N 56°09' E 016°45'1414.2
2014-Jul-20 03:33N 56°18' E 017°05'1414.0
2014-Jul-20 02:33N 56°26' E 017°25'1413.9
2014-Jul-20 01:33N 56°35' E 017°44'1414.1
2014-Jul-20 00:33N 56°43' E 018°05'1414.0
2014-Jul-19 23:33N 56°52' E 018°25'1414.2
2014-Jul-19 22:33N 56°57' E 018°50'  
Track history (hours):
 
Tides and Currents Weather Stations Pressure Air Temp Water Temp Dewpoint Dewpoint Depression Visibility Wind Speed Wind Dir Waves Ship Positions

Sanko Independence

Last reported at 2014-Jul-29 22:27 UTC. Time now 2014-Jul-30 05:09 UTC.
Position N 33°10' W 008°40'.

Length 174 m; draft 10.5 m.

Type: Ship (hazmat cat C). MMSI: 636013946.

Date/timePositionNaut miles runAvg speedWind from/ knotsBaromVisibWave heightAir tempDewpointWater temp
2014-Jul-29 22:27N 33°10' W 008°40'  
2014-Jul-26 13:08N 35°32' W 009°18'1414.5
2014-Jul-26 12:09N 35°46' W 009°22'3914.6
2014-Jul-26 09:29N 36°24' W 009°33'1414.4
2014-Jul-26 08:33N 36°37' W 009°37'1614.3
2014-Jul-26 07:26N 36°53' W 009°40'1314.4
2014-Jul-26 06:32N 37°05' W 009°44'1414.7
2014-Jul-26 05:33N 37°19' W 009°49'1614.8
2014-Jul-26 04:27N 37°35' W 009°53'1314.5
2014-Jul-26 03:33N 37°48' W 009°57'1414.6
2014-Jul-26 02:33N 38°02' W 010°00'2114.5
2014-Jul-26 01:05N 38°23' W 010°07'914.5
2014-Jul-26 00:30N 38°31' W 010°09'1614.7
2014-Jul-25 23:26N 38°47' W 010°12'1314.5
2014-Jul-25 22:33N 38°60' W 010°12'1514.6
2014-Jul-25 21:31N 39°15' W 010°12'1414.7
2014-Jul-25 20:33N 39°29' W 010°12'68613.7
2014-Jul-23 18:33N 49°55' W 003°37'9511.9
2014-Jul-23 10:31N 50°26' W 001°16'1715.9
2014-Jul-23 09:27N 50°27' W 000°50'1314.6
2014-Jul-23 08:33N 50°27' W 000°29'1413.9
2014-Jul-23 07:32N 50°30' W 000°07'1313.3
2014-Jul-23 06:32N 50°33' E 000°13'1313.2
2014-Jul-23 05:33N 50°37' E 000°33'1414.1
2014-Jul-23 04:33N 50°44' E 000°52'1815.3
2014-Jul-23 03:24N 50°54' E 001°15'1316.1
2014-Jul-23 02:33N 51°03' E 001°31'1515.2
2014-Jul-23 01:33N 51°15' E 001°47'1413.8
2014-Jul-23 00:33N 51°27' E 001°58'1313.2
2014-Jul-22 23:33N 51°37' E 002°10'1313.0
2014-Jul-22 22:31N 51°48' E 002°24'1212.7
2014-Jul-22 21:33N 51°58' E 002°34'1413.9
2014-Jul-22 20:33N 52°12' E 002°40'1514.9
2014-Jul-22 19:34N 52°25' E 002°50'1515.4
2014-Jul-22 18:34N 52°39' E 003°01'1615.6
2014-Jul-22 17:34N 52°53' E 003°13'1515.3
2014-Jul-22 16:34N 53°07' E 003°22'1514.7
2014-Jul-22 15:34N 53°21' E 003°30'1414.1
2014-Jul-22 14:33N 53°34' E 003°37'1313.2
2014-Jul-22 13:33N 53°46' E 003°48'1414.0
2014-Jul-22 12:33N 53°54' E 004°07'1413.6
2014-Jul-22 11:33N 54°06' E 004°20'1414.3
2014-Jul-22 10:33N 54°18' E 004°33'1414.4
2014-Jul-22 09:33N 54°30' E 004°47'25413.9
2014-Jul-21 15:16N 57°45' E 009°38'1014.1
2014-Jul-21 14:33N 57°50' E 009°55'1414.1
2014-Jul-21 13:33N 57°51' E 010°21'1413.6
2014-Jul-21 12:34N 57°48' E 010°46'1211.9
2014-Jul-21 11:33N 57°40' E 011°02'1413.9
2014-Jul-21 10:33N 57°30' E 011°21'1414.0
2014-Jul-21 09:33N 57°18' E 011°34'1514.5
2014-Jul-21 08:33N 57°04' E 011°42'1414.5
2014-Jul-21 07:33N 56°50' E 011°51'1312.9
2014-Jul-21 06:32N 56°37' E 011°46'1413.5
2014-Jul-21 05:32N 56°26' E 011°33'1413.5
2014-Jul-21 04:31N 56°14' E 011°21'1313.6
2014-Jul-21 03:34N 56°03' E 011°07'1414.3
2014-Jul-21 02:34N 55°52' E 010°52'1614.5
2014-Jul-21 01:29N 55°36' E 010°49'1415.0
2014-Jul-21 00:33N 55°24' E 011°01'1413.8
2014-Jul-20 23:33N 55°10' E 011°04'1413.8
2014-Jul-20 22:34N 54°57' E 010°55'1514.6
2014-Jul-20 21:34N 54°43' E 010°50'1413.5
2014-Jul-20 20:34N 54°36' E 011°10'1515.3
2014-Jul-20 19:34N 54°29' E 011°33'1514.8
2014-Jul-20 18:34N 54°26' E 011°58'1312.6
2014-Jul-20 17:34N 54°34' E 012°15'1414.2
2014-Jul-20 16:34N 54°43' E 012°34'1414.1
2014-Jul-20 15:34N 54°50' E 012°56'1414.2
2014-Jul-20 14:34N 54°54' E 013°19'1414.3
2014-Jul-20 13:34N 54°60' E 013°42'1414.2
2014-Jul-20 12:34N 55°04' E 014°05'1413.9
2014-Jul-20 11:33N 55°12' E 014°26'1413.8
2014-Jul-20 10:33N 55°20' E 014°45'1111.0
2014-Jul-20 09:33N 55°26' E 015°02'1414.3
2014-Jul-20 08:33N 55°35' E 015°22'1414.4
2014-Jul-20 07:33N 55°43' E 015°42'1414.5
2014-Jul-20 06:33N 55°52' E 016°03'1414.4
2014-Jul-20 05:33N 56°00' E 016°24'1414.4
2014-Jul-20 04:33N 56°09' E 016°45'1414.2
2014-Jul-20 03:33N 56°18' E 017°05'1414.0
2014-Jul-20 02:33N 56°26' E 017°25'1413.9
2014-Jul-20 01:33N 56°35' E 017°44'1414.1
2014-Jul-20 00:33N 56°43' E 018°05'1414.0
2014-Jul-19 23:33N 56°52' E 018°25'1414.2
2014-Jul-19 22:33N 56°57' E 018°50'  

Dump ship's entire track history